Regional Weather Roundup
Issued by NWS

Home | Current Version | Previous Version | Text Only | Print | Product List | Glossary On
Versions: 1 2 3 4 5 6 7 8 9 10 11 12 13 14 15 16 17 18 19 20 21 22 23 24 25 26 27 28 29 30 31 32 33 34 35 36 37 38 39 40 41 42 43 44 45 46 47 48 49 50
723
ASUS44 KJAN 221803
RWRMS

MISSISSIPPI HOURLY WEATHER ROUNDUP
NATIONAL WEATHER SERVICE JACKSON MS
100 PM CDT WED OCT 22 2014

NOTE: "FAIR: INDICATES FEW OR NO CLOUDS BELOW 12,000 FEET WITH NO
SIGNIFICANT WEATHER AND/OR OBSTRUCTIONS TO VISIBILITY.

MSZ001>002-007>008-010>013-018>021-025>028-034>036-221900-
NORTHWEST MISSISSIPPI

CITY           SKY/WX    TMP DP  RH WIND       PRES   REMARKS
CLARKSDALE     FAIR      66  45  45 N9        30.21F
CLEVELAND      FAIR      69  48  47 N9        30.19F
GREENWOOD        N/A     70  45  40 MISG      30.17F
GREENVILLE     FAIR      72  48  42 N14       30.17F
6HR MIN TEMP:  48; 6HR MAX TEMP:  72;

GRENADA          N/A    N/A N/A N/A MISG        N/A
OLIVE BRANCH   SUNNY     63  43  48 NE10      30.22F
OXFORD         FAIR      64  41  42 NE12G17   30.21F
TUNICA         FAIR      64  41  42 NE9       30.22F
$$

MSZ003>006-009-014>017-022>024-029>033-037>039-221900-
NORTHEAST MISSISSIPPI

CITY           SKY/WX    TMP DP  RH WIND       PRES   REMARKS
COLUMBUS AFB   FAIR      66  43  43 N10       30.17F
6HR MIN TEMP:  47; 6HR MAX TEMP:  66; 6HR PCP: TRACE;

CORINTH        FAIR      64  41  42 N10G17    30.21F
GOLDN TRIANGLE SUNNY     66  43  42 NE8       30.17F
STARKVILLE     FAIR      64  43  45 NE3       30.17F
TUPELO         FAIR      64  42  44 E8        30.19F
6HR MIN TEMP:  47; 6HR MAX TEMP:  65;

$$

MSZ040-058-221900-
CENTRAL MISSISSIPPI

CITY           SKY/WX    TMP DP  RH WIND       PRES   REMARKS
JACKSON INTL   FAIR      73  50  44 N9        30.14F
6HR MIN TEMP:  49; 6HR MAX TEMP:  73;

JACKSON HAWKNS FAIR      72  49  44 CALM      30.15F
6HR MIN TEMP:  50; 6HR MAX TEMP:  73;

MERIDIAN KEY   FAIR      71  45  39 NE14      30.13F
6HR MIN TEMP:  46; 6HR MAX TEMP:  71;

MERIDIAN NAS   FAIR      70  45  40 VRB6      30.14F
6HR MIN TEMP:  47; 6HR MAX TEMP:  70;

RAYMOND        FAIR      73  68  83 NE5       30.15F
VICKSBURG      FAIR      75  49  39 NE13      30.14F
6HR MIN TEMP:  44; 6HR MAX TEMP:  76;

$$

MSZ059>079-221900-
SOUTH MISSISSIPPI

CITY           SKY/WX    TMP DP  RH WIND       PRES   REMARKS
BROOKHAVEN     FAIR      73  48  40 CALM      30.13F
HATTIESBURG    FAIR      76  50  40 NE7       30.10F
6HR MIN TEMP:  49; 6HR MAX TEMP:  76;

MCCOMB         FAIR      75  48  38 N6        30.10F
6HR MIN TEMP:  58; 6HR MAX TEMP:  75;

NATCHEZ        FAIR      73  50  43 NE8       30.13F
6HR MIN TEMP:  50; 6HR MAX TEMP:  73;

PINE BELT      FAIR      75  48  38 NE5       30.12F
6HR MIN TEMP:  54; 6HR MAX TEMP:  75;

$$

MSZ080>082-221900-
COASTAL MISSISSIPPI

CITY           SKY/WX    TMP DP  RH WIND       PRES   REMARKS
BILOXI         FAIR      78  51  39 N8        30.06F
6HR MIN TEMP:  58; 6HR MAX TEMP:  78;

PASCAGOULA     FAIR      77  50  38 N9        30.06F
6HR MIN TEMP:  50; 6HR MAX TEMP:  78;

GULFPORT       FAIR      78  50  37 NE9       30.06F
6HR MIN TEMP:  57; 6HR MAX TEMP:  78;

$$



USA.gov is the U.S. government's official web portal to all federal, state and local government web resources and services.